Airfield :
LOGIN :

Register | Disclaimer

   EN    FR    IT 

 










Legend :    VFR   Marginal VFR   IFR   Intensive IFR   Very Intensive IFR
Visi :
Ceiling :
>= 8 km
>= 3000ft
5 to 8 km
1000 to 3000 ft
1500m to 5 km
500 to 1000 ft
800 to 1500m
200 to 500 ft
< 800m
< 200 ft
Symbols :   Thunderstorms  Fog  Heavy snow  Heavy precipitations  Wind > 20 kt
SIGMETs :     Misc.  Thunderstorms  Icing  Turbulence  Mountain Waves  Volcanic Ashes







- Airport Elevation : 39 ft
- IATA code : CTA


LICC - Catania Fontanarossa

CURRENT METAR :
  • 201450Z 10008KT 9999 FEW100 31/18 Q1011

EXPIRED METARs :
  • 201420Z 09009KT CAVOK 32/18 Q1011
  • 201350Z 09008KT CAVOK 32/19 Q1012
  • 201320Z 09011KT CAVOK 30/21 Q1012
  • 201250Z 09012KT CAVOK 31/21 Q1012
  • 201220Z 09011KT CAVOK 31/22 Q1012

TAF TAF LICC
Valid from the 20 at 12:00 until the 21 at 12:00 UTC


201100Z 2012/2112 09012KT CAVOK
BECMG 2018/2020 25006KT
BECMG 2109/2111 09012KT
No reported NOTAMs for that airfield.



MET'MAP, your aeronautical weather chart ! - Copyright ORBIFLY December 2007 - Disclaimer

ORBIFLY MET'MAP TEAM :

Programming & Development : Alexandra Zaïnal
Concept & Development : Baudouin d'Aumeries
Co-Development & Prog : Marc-Olivier Méhu
Technical & hardware support : Manuel Goepfert

Contact : metmap@orbifly.com




SOURCES & CREDITS :

   NOAA